Tracking 28794 objects as of 19-Apr-2024
HD Live streaming from Space Station
objects crossing your sky now

ATLAS CENTAUR R/B

Track ATLAS CENTAUR R/B now!


NORAD ID: 6779
Int'l Code: 1971-116B
Perigee: 693.8 km
Apogee: 36,562.4 km
Inclination: 27.9 °
Period: 655.6 minutes
Semi major axis: 24999 km
RCS: 17.4728 m2 (large)
Launch date: December 20, 1971
Source: United States (US)
Launch site: AIR FORCE EASTERN TEST RANGE (AFETR)

Note: This is a ROCKET BODY
Your satellite tracking list
Your tracking list is empty




NASA's NSSDC Master Catalog

Two Line Element Set (TLE):
1  6779U 71116B   24110.45249838 -.00000214  00000-0  10155-2 0  9998
2  6779  27.8739 275.8344 7173965  93.3116 343.3692  2.19642520401322
Source of the keplerian elements: AFSPC